GEFSMW_prec_meanprecacc_084.txt.gz
Total_Precipitation_Accumulation
0.06 0.09 0.12 0.15 0.17 0.17 0.19 0.23 0.29 0.32 0.34 0.42 0.53 0.62 0.72 0.90 1.11 1.17 1.22 1.35 1.36 1.38 1.51 1.60 1.61 1.51 1.38 1.37 1.51 1.79 1.65 1.28 1.11 1.08 0.89 0.66 0.48 0.45 0.35 0.29 0.26 0.25 0.26
0.04 0.05 0.07 0.10 0.11 0.10 0.12 0.17 0.26 0.35 0.41 0.47 0.62 0.77 0.99 1.11 1.25 1.40 1.39 1.41 1.46 1.48 1.55 1.73 1.82 1.73 1.68 1.74 1.71 1.84 1.93 1.69 1.44 1.33 1.39 1.10 0.81 0.51 0.35 0.32 0.26 0.26 0.30
0.04 0.04 0.04 0.06 0.09 0.08 0.10 0.17 0.31 0.50 0.70 0.82 1.05 1.33 1.58 1.66 1.58 1.57 1.61 1.59 1.63 1.68 1.64 1.74 1.93 1.87 1.80 1.79 1.91 2.09 2.26 2.15 1.93 1.69 1.68 1.32 1.06 0.96 0.54 0.35 0.32 0.29 0.29
0.09 0.07 0.08 0.08 0.09 0.12 0.20 0.36 0.61 0.91 1.16 1.32 1.51 1.72 1.83 1.87 1.80 1.81 1.79 1.77 1.68 1.60 1.58 1.70 1.90 2.02 2.09 2.10 2.15 2.11 2.30 2.40 2.19 2.13 1.81 1.47 1.25 1.26 1.04 0.64 0.42 0.39 0.35
0.18 0.19 0.21 0.22 0.28 0.39 0.57 0.86 1.12 1.37 1.52 1.58 1.68 1.88 2.03 2.19 2.20 2.08 1.93 1.81 1.76 1.68 1.60 1.63 1.70 1.75 1.82 1.92 2.05 2.08 2.22 2.27 2.32 2.29 2.12 1.89 1.63 1.19 1.11 1.07 0.81 0.59 0.40
0.29 0.35 0.45 0.55 0.70 0.82 1.00 1.20 1.35 1.50 1.51 1.52 1.58 1.71 1.90 2.06 2.08 2.09 2.05 1.92 1.76 1.66 1.57 1.52 1.60 1.63 1.63 1.74 1.85 1.92 2.09 2.20 2.27 2.29 2.14 1.94 1.80 1.55 1.29 1.12 1.03 0.92 0.63
0.41 0.57 0.72 0.86 0.98 1.09 1.19 1.22 1.22 1.27 1.30 1.32 1.36 1.44 1.50 1.53 1.59 1.70 1.62 1.48 1.35 1.30 1.30 1.23 1.28 1.40 1.45 1.63 1.69 1.62 1.65 1.79 1.93 2.05 2.06 1.98 1.83 1.77 1.65 1.48 1.30 1.10 0.79
0.68 0.77 0.88 0.97 1.01 1.14 1.20 1.16 1.13 1.12 1.06 1.00 1.05 1.07 1.11 1.17 1.20 1.22 1.17 1.09 1.04 1.00 0.96 0.96 0.97 1.02 1.11 1.31 1.51 1.49 1.50 1.56 1.62 1.69 1.88 1.92 1.85 1.84 1.64 1.48 1.44 1.25 1.00
0.94 1.08 1.08 0.99 0.90 0.94 1.02 1.01 0.97 0.92 0.84 0.78 0.82 0.85 0.92 0.94 0.93 0.91 0.86 0.84 0.78 0.78 0.75 0.78 0.85 0.89 0.89 0.99 1.11 1.29 1.36 1.41 1.48 1.50 1.60 1.63 1.67 1.66 1.53 1.49 1.40 1.26 1.06
1.00 1.24 1.38 1.27 1.00 0.80 0.82 0.79 0.76 0.80 0.79 0.75 0.77 0.77 0.70 0.64 0.66 0.69 0.63 0.62 0.66 0.70 0.70 0.66 0.67 0.72 0.72 0.82 0.92 0.98 1.10 1.17 1.30 1.46 1.57 1.57 1.57 1.59 1.52 1.46 1.44 1.32 1.08
1.17 1.31 1.36 1.23 1.05 0.78 0.69 0.68 0.66 0.70 0.76 0.70 0.72 0.71 0.61 0.49 0.47 0.47 0.45 0.44 0.48 0.54 0.55 0.57 0.63 0.62 0.63 0.64 0.64 0.69 0.76 0.82 0.92 0.99 1.10 1.29 1.47 1.51 1.51 1.53 1.51 1.45 1.27
0.83 0.85 0.96 0.97 0.91 0.78 0.71 0.75 0.80 0.79 0.71 0.65 0.62 0.58 0.51 0.44 0.43 0.41 0.38 0.39 0.44 0.46 0.47 0.52 0.57 0.56 0.61 0.63 0.62 0.61 0.61 0.68 0.77 0.80 0.81 0.92 1.14 1.26 1.36 1.42 1.43 1.44 1.40
0.60 0.53 0.64 0.78 0.73 0.66 0.70 0.77 0.91 0.91 0.82 0.70 0.60 0.56 0.52 0.49 0.47 0.42 0.41 0.41 0.47 0.57 0.60 0.60 0.63 0.60 0.62 0.62 0.63 0.64 0.63 0.64 0.71 0.75 0.77 0.82 0.93 1.06 1.12 1.22 1.30 1.37 1.46
0.47 0.41 0.40 0.42 0.41 0.44 0.47 0.59 0.84 1.03 1.01 0.90 0.77 0.68 0.61 0.54 0.48 0.44 0.43 0.42 0.45 0.51 0.53 0.62 0.69 0.76 0.81 0.80 0.76 0.73 0.69 0.65 0.68 0.74 0.80 0.81 0.81 0.92 1.12 1.25 1.30 1.33 1.39
0.28 0.24 0.20 0.20 0.22 0.27 0.34 0.45 0.72 0.91 0.93 0.92 0.80 0.66 0.55 0.45 0.43 0.46 0.49 0.46 0.41 0.43 0.44 0.52 0.60 0.70 0.78 0.83 0.82 0.68 0.58 0.59 0.64 0.64 0.65 0.74 0.81 0.83 0.96 1.11 1.31 1.32 1.37
0.18 0.18 0.16 0.14 0.11 0.11 0.16 0.27 0.46 0.62 0.68 0.74 0.70 0.54 0.48 0.43 0.39 0.42 0.48 0.49 0.39 0.37 0.39 0.43 0.42 0.44 0.48 0.63 0.62 0.50 0.42 0.47 0.57 0.64 0.67 0.68 0.69 0.70 0.74 0.76 0.99 1.16 1.25
0.22 0.22 0.22 0.19 0.17 0.14 0.14 0.17 0.24 0.33 0.40 0.44 0.45 0.36 0.34 0.41 0.42 0.45 0.44 0.38 0.31 0.34 0.35 0.31 0.27 0.28 0.32 0.36 0.35 0.40 0.43 0.46 0.51 0.59 0.68 0.73 0.71 0.76 0.83 0.78 0.82 0.90 0.96
0.28 0.24 0.20 0.18 0.15 0.12 0.12 0.13 0.15 0.18 0.20 0.20 0.17 0.14 0.21 0.30 0.32 0.30 0.28 0.23 0.23 0.28 0.36 0.31 0.29 0.32 0.28 0.30 0.34 0.37 0.41 0.55 0.60 0.60 0.61 0.72 0.77 0.82 0.96 0.94 1.00 0.91 0.82
0.12 0.08 0.05 0.04 0.03 0.03 0.03 0.03 0.02 0.02 0.02 0.02 0.02 0.04 0.05 0.06 0.06 0.06 0.07 0.11 0.15 0.19 0.18 0.22 0.37 0.37 0.32 0.40 0.37 0.32 0.40 0.53 0.61 0.56 0.59 0.71 0.80 0.94 1.03 1.08 1.08 0.97 0.87
0.01 0.00 0.00 0.00 0.00 0.00 0.00 0.00 0.00 0.00 0.00 0.00 0.00 0.00 0.01 0.01 0.01 0.01 0.01 0.03 0.06 0.09 0.10 0.14 0.26 0.33 0.34 0.34 0.24 0.24 0.36 0.50 0.58 0.59 0.60 0.82 0.83 0.90 0.94 1.00 1.09 1.08 0.95
0.00 0.00 0.00 0.00 0.00 0.00 0.00 0.00 0.00 0.00 0.00 0.00 0.00 0.00 0.00 0.01 0.01 0.02 0.01 0.00 0.01 0.02 0.05 0.10 0.13 0.14 0.14 0.13 0.13 0.19 0.27 0.34 0.47 0.54 0.59 0.57 0.68 0.70 0.79 0.90 0.95 1.12 0.99
0.00 0.00 0.00 0.00 0.00 0.00 0.00 0.00 0.00 0.00 0.00 0.00 0.00 0.00 0.01 0.01 0.01 0.02 0.01 0.01 0.00 0.01 0.02 0.05 0.09 0.07 0.06 0.05 0.06 0.08 0.12 0.19 0.28 0.37 0.48 0.48 0.54 0.59 0.67 0.69 0.85 1.00 0.94
0.00 0.00 0.00 0.00 0.00 0.00 0.00 0.00 0.00 0.00 0.00 0.00 0.01 0.00 0.00 0.01 0.00 0.01 0.01 0.01 0.01 0.01 0.02 0.03 0.06 0.07 0.08 0.07 0.06 0.06 0.08 0.13 0.18 0.22 0.37 0.44 0.49 0.48 0.49 0.61 0.78 0.83 0.86
0.00 0.00 0.00 0.00 0.00 0.00 0.00 0.00 0.00 0.00 0.00 0.00 0.00 0.00 0.00 0.01 0.00 0.01 0.00 0.01 0.01 0.01 0.01 0.02 0.04 0.08 0.10 0.07 0.05 0.08 0.10 0.13 0.15 0.18 0.32 0.43 0.50 0.49 0.48 0.54 0.66 0.72 0.84
0.00 0.00 0.00 0.00 0.00 0.00 0.00 0.00 0.00 0.00 0.00 0.00 0.00 0.00 0.00 0.01 0.01 0.01 0.00 0.00 0.00 0.01 0.01 0.01 0.03 0.03 0.04 0.03 0.04 0.08 0.11 0.13 0.14 0.23 0.41 0.56 0.57 0.57 0.52 0.55 0.64 0.62 0.61
0.00 0.00 0.00 0.00 0.00 0.00 0.00 0.00 0.00 0.00 0.00 0.00 0.00 0.00 0.00 0.01 0.01 0.01 0.01 0.00 0.01 0.01 0.01 0.01 0.02 0.02 0.02 0.03 0.06 0.11 0.14 0.16 0.23 0.40 0.60 0.71 0.78 0.76 0.68 0.63 0.61 0.56 0.54

GEFSMW_prec_meanprecacc_090.txt.gz
Total_Precipitation_Accumulation
0.06 0.09 0.12 0.15 0.17 0.17 0.19 0.23 0.29 0.32 0.34 0.42 0.53 0.62 0.72 0.90 1.11 1.17 1.22 1.35 1.36 1.39 1.52 1.61 1.62 1.53 1.41 1.39 1.54 1.82 1.68 1.31 1.15 1.16 0.98 0.73 0.53 0.51 0.41 0.35 0.33 0.29 0.30
0.04 0.05 0.07 0.10 0.11 0.10 0.12 0.17 0.26 0.35 0.41 0.47 0.62 0.77 0.99 1.11 1.25 1.40 1.39 1.41 1.46 1.48 1.56 1.74 1.83 1.75 1.70 1.76 1.74 1.88 1.97 1.72 1.47 1.38 1.47 1.20 0.89 0.55 0.39 0.37 0.33 0.32 0.35
0.04 0.04 0.04 0.06 0.09 0.08 0.10 0.17 0.31 0.50 0.70 0.82 1.05 1.33 1.58 1.66 1.58 1.57 1.61 1.59 1.63 1.68 1.64 1.75 1.94 1.88 1.82 1.81 1.94 2.13 2.30 2.19 1.97 1.74 1.75 1.41 1.16 1.03 0.58 0.38 0.36 0.36 0.37
0.09 0.07 0.08 0.08 0.09 0.12 0.20 0.36 0.61 0.91 1.16 1.32 1.51 1.72 1.83 1.87 1.80 1.81 1.79 1.77 1.68 1.60 1.58 1.70 1.90 2.03 2.10 2.11 2.16 2.13 2.34 2.45 2.23 2.17 1.86 1.54 1.33 1.35 1.10 0.68 0.45 0.43 0.41
0.18 0.19 0.21 0.22 0.28 0.39 0.57 0.86 1.12 1.37 1.52 1.58 1.68 1.88 2.03 2.19 2.20 2.08 1.93 1.81 1.76 1.68 1.60 1.64 1.71 1.75 1.82 1.92 2.05 2.09 2.24 2.31 2.36 2.33 2.17 1.93 1.68 1.26 1.17 1.13 0.85 0.62 0.43
0.29 0.35 0.45 0.55 0.70 0.82 1.00 1.20 1.35 1.50 1.51 1.52 1.58 1.71 1.90 2.06 2.08 2.09 2.05 1.92 1.77 1.66 1.58 1.53 1.61 1.64 1.63 1.75 1.85 1.93 2.11 2.22 2.29 2.33 2.19 2.00 1.85 1.60 1.34 1.17 1.08 0.96 0.66
0.41 0.57 0.72 0.86 0.98 1.09 1.19 1.22 1.22 1.27 1.30 1.32 1.36 1.44 1.50 1.53 1.59 1.70 1.62 1.48 1.35 1.30 1.30 1.23 1.28 1.41 1.46 1.63 1.70 1.63 1.66 1.80 1.94 2.08 2.10 2.02 1.87 1.83 1.72 1.54 1.35 1.15 0.82
0.68 0.77 0.88 0.97 1.01 1.14 1.20 1.16 1.13 1.12 1.06 1.00 1.05 1.07 1.11 1.17 1.20 1.22 1.17 1.09 1.04 1.00 0.96 0.96 0.97 1.03 1.11 1.32 1.52 1.50 1.51 1.57 1.63 1.70 1.90 1.95 1.88 1.87 1.69 1.54 1.50 1.29 1.04
0.94 1.08 1.08 0.99 0.90 0.94 1.02 1.01 0.97 0.92 0.84 0.78 0.82 0.85 0.92 0.94 0.93 0.91 0.86 0.84 0.78 0.78 0.75 0.78 0.85 0.90 0.90 0.99 1.11 1.30 1.38 1.42 1.48 1.51 1.62 1.65 1.69 1.69 1.57 1.54 1.46 1.31 1.09
1.00 1.24 1.38 1.27 1.00 0.80 0.82 0.79 0.76 0.80 0.79 0.75 0.77 0.77 0.70 0.64 0.66 0.69 0.63 0.62 0.66 0.70 0.70 0.66 0.67 0.72 0.73 0.83 0.92 0.98 1.10 1.17 1.31 1.47 1.58 1.58 1.58 1.60 1.54 1.49 1.49 1.38 1.13
1.17 1.31 1.36 1.23 1.05 0.78 0.69 0.68 0.66 0.70 0.76 0.70 0.72 0.71 0.61 0.49 0.47 0.47 0.45 0.45 0.48 0.54 0.55 0.57 0.63 0.62 0.63 0.65 0.65 0.69 0.76 0.83 0.93 1.00 1.10 1.30 1.48 1.52 1.52 1.54 1.54 1.48 1.31
0.83 0.85 0.96 0.97 0.91 0.78 0.71 0.75 0.80 0.79 0.71 0.65 0.62 0.58 0.51 0.44 0.43 0.41 0.38 0.39 0.44 0.46 0.47 0.53 0.57 0.57 0.61 0.64 0.63 0.62 0.62 0.70 0.78 0.81 0.82 0.92 1.14 1.27 1.37 1.43 1.45 1.47 1.43
0.60 0.53 0.64 0.78 0.73 0.66 0.70 0.77 0.91 0.91 0.82 0.70 0.60 0.56 0.52 0.49 0.47 0.42 0.41 0.41 0.47 0.58 0.60 0.60 0.64 0.61 0.63 0.62 0.63 0.64 0.63 0.65 0.72 0.76 0.78 0.83 0.93 1.07 1.14 1.23 1.32 1.39 1.50
0.47 0.41 0.40 0.42 0.41 0.44 0.47 0.59 0.84 1.03 1.01 0.90 0.77 0.68 0.61 0.54 0.48 0.44 0.43 0.42 0.45 0.51 0.53 0.62 0.70 0.77 0.82 0.80 0.76 0.73 0.70 0.65 0.68 0.75 0.81 0.81 0.82 0.93 1.14 1.26 1.32 1.34 1.42
0.28 0.24 0.20 0.20 0.22 0.27 0.34 0.45 0.72 0.91 0.93 0.92 0.80 0.66 0.55 0.45 0.43 0.46 0.49 0.46 0.41 0.43 0.44 0.52 0.61 0.70 0.79 0.84 0.83 0.68 0.58 0.60 0.65 0.64 0.66 0.74 0.82 0.84 0.97 1.12 1.34 1.34 1.40
0.18 0.18 0.16 0.14 0.11 0.11 0.16 0.27 0.46 0.62 0.68 0.74 0.70 0.54 0.48 0.43 0.39 0.42 0.48 0.49 0.39 0.37 0.39 0.43 0.42 0.44 0.48 0.63 0.63 0.51 0.43 0.48 0.57 0.65 0.67 0.68 0.69 0.71 0.74 0.77 1.01 1.18 1.27
0.22 0.22 0.22 0.19 0.17 0.14 0.14 0.17 0.24 0.33 0.40 0.44 0.45 0.36 0.34 0.41 0.42 0.45 0.44 0.38 0.31 0.34 0.36 0.31 0.27 0.28 0.32 0.37 0.35 0.40 0.43 0.46 0.51 0.59 0.68 0.73 0.71 0.76 0.84 0.78 0.82 0.91 0.97
0.28 0.24 0.20 0.18 0.15 0.12 0.12 0.13 0.15 0.18 0.20 0.20 0.17 0.14 0.21 0.30 0.32 0.30 0.28 0.23 0.23 0.28 0.36 0.31 0.29 0.32 0.28 0.30 0.34 0.37 0.41 0.55 0.61 0.60 0.61 0.72 0.77 0.82 0.97 0.95 1.01 0.93 0.83
0.12 0.08 0.05 0.04 0.03 0.03 0.03 0.03 0.02 0.02 0.02 0.02 0.02 0.04 0.05 0.06 0.06 0.06 0.07 0.11 0.15 0.19 0.18 0.22 0.37 0.37 0.33 0.40 0.38 0.32 0.40 0.53 0.61 0.56 0.60 0.71 0.81 0.94 1.04 1.09 1.10 0.99 0.88
0.01 0.00 0.00 0.00 0.00 0.00 0.00 0.00 0.00 0.00 0.00 0.00 0.00 0.00 0.01 0.01 0.01 0.01 0.01 0.03 0.06 0.09 0.10 0.14 0.26 0.33 0.34 0.34 0.24 0.24 0.37 0.50 0.58 0.59 0.61 0.82 0.83 0.90 0.95 1.00 1.10 1.09 0.96
0.00 0.00 0.00 0.00 0.00 0.00 0.00 0.00 0.00 0.00 0.00 0.00 0.00 0.00 0.00 0.01 0.01 0.02 0.01 0.00 0.01 0.02 0.05 0.10 0.13 0.14 0.14 0.13 0.14 0.19 0.27 0.34 0.47 0.54 0.59 0.57 0.68 0.70 0.79 0.90 0.96 1.14 1.00
0.00 0.00 0.00 0.00 0.00 0.00 0.00 0.00 0.00 0.00 0.00 0.00 0.00 0.00 0.01 0.01 0.01 0.02 0.01 0.01 0.00 0.01 0.02 0.05 0.09 0.07 0.06 0.05 0.06 0.08 0.12 0.19 0.28 0.37 0.48 0.48 0.54 0.59 0.67 0.69 0.85 1.01 0.95
0.00 0.00 0.00 0.00 0.00 0.00 0.00 0.00 0.00 0.00 0.00 0.00 0.01 0.00 0.00 0.01 0.00 0.01 0.01 0.01 0.01 0.01 0.02 0.03 0.06 0.07 0.08 0.07 0.06 0.06 0.08 0.13 0.18 0.22 0.37 0.44 0.49 0.48 0.49 0.62 0.78 0.83 0.87
0.00 0.00 0.00 0.00 0.00 0.00 0.00 0.00 0.00 0.00 0.00 0.00 0.00 0.00 0.00 0.01 0.00 0.01 0.00 0.01 0.01 0.01 0.01 0.02 0.04 0.08 0.11 0.07 0.05 0.08 0.10 0.13 0.15 0.18 0.32 0.43 0.50 0.49 0.48 0.54 0.66 0.72 0.85
0.00 0.00 0.00 0.00 0.00 0.00 0.00 0.00 0.00 0.00 0.00 0.00 0.00 0.00 0.00 0.01 0.01 0.01 0.00 0.00 0.00 0.01 0.01 0.01 0.03 0.03 0.04 0.03 0.04 0.08 0.11 0.13 0.14 0.23 0.41 0.56 0.58 0.57 0.52 0.55 0.64 0.63 0.61
0.00 0.00 0.00 0.00 0.00 0.00 0.00 0.00 0.00 0.00 0.00 0.00 0.00 0.00 0.00 0.01 0.01 0.01 0.01 0.00 0.01 0.01 0.01 0.01 0.02 0.02 0.02 0.03 0.06 0.11 0.14 0.16 0.23 0.40 0.60 0.72 0.79 0.77 0.68 0.63 0.61 0.56 0.55

GEFSMW_prec_meanprecacc_096.txt.gz
Total_Precipitation_Accumulation
0.06 0.09 0.12 0.15 0.17 0.17 0.19 0.23 0.29 0.32 0.34 0.42 0.53 0.62 0.72 0.90 1.11 1.17 1.22 1.35 1.37 1.40 1.54 1.63 1.65 1.57 1.46 1.46 1.61 1.91 1.77 1.40 1.23 1.23 1.06 0.81 0.63 0.62 0.50 0.44 0.44 0.41 0.41
0.05 0.05 0.07 0.10 0.11 0.10 0.12 0.17 0.26 0.35 0.41 0.47 0.62 0.77 0.99 1.11 1.25 1.40 1.39 1.41 1.46 1.49 1.57 1.78 1.88 1.80 1.75 1.80 1.79 1.95 2.05 1.79 1.55 1.46 1.55 1.29 0.99 0.63 0.45 0.44 0.42 0.42 0.47
0.04 0.04 0.04 0.06 0.09 0.08 0.10 0.17 0.31 0.50 0.70 0.82 1.05 1.33 1.58 1.66 1.58 1.57 1.61 1.59 1.63 1.70 1.66 1.77 1.97 1.93 1.86 1.85 1.99 2.19 2.38 2.27 2.05 1.83 1.84 1.50 1.26 1.14 0.65 0.44 0.43 0.45 0.48
0.09 0.07 0.08 0.08 0.09 0.12 0.20 0.36 0.61 0.91 1.16 1.32 1.51 1.72 1.83 1.87 1.80 1.81 1.79 1.77 1.69 1.62 1.61 1.72 1.93 2.06 2.12 2.14 2.19 2.17 2.39 2.52 2.31 2.26 1.95 1.61 1.42 1.45 1.21 0.76 0.53 0.53 0.51
0.18 0.19 0.21 0.22 0.28 0.39 0.57 0.86 1.12 1.37 1.52 1.58 1.68 1.88 2.03 2.19 2.20 2.08 1.93 1.82 1.78 1.70 1.61 1.66 1.73 1.78 1.85 1.95 2.07 2.12 2.28 2.36 2.44 2.42 2.25 2.00 1.75 1.33 1.27 1.25 0.96 0.72 0.50
0.29 0.35 0.45 0.55 0.70 0.82 1.00 1.20 1.35 1.50 1.51 1.52 1.58 1.71 1.90 2.06 2.08 2.09 2.05 1.92 1.78 1.67 1.58 1.53 1.64 1.66 1.66 1.77 1.88 1.95 2.14 2.26 2.36 2.40 2.26 2.07 1.93 1.68 1.43 1.28 1.20 1.07 0.75
0.41 0.57 0.72 0.86 0.98 1.09 1.19 1.22 1.22 1.27 1.30 1.32 1.36 1.44 1.50 1.53 1.59 1.70 1.62 1.49 1.36 1.31 1.30 1.24 1.30 1.43 1.48 1.65 1.71 1.64 1.68 1.82 1.98 2.13 2.16 2.09 1.95 1.90 1.79 1.62 1.46 1.25 0.92
0.68 0.77 0.88 0.97 1.01 1.14 1.20 1.16 1.13 1.12 1.06 1.00 1.05 1.07 1.11 1.17 1.20 1.22 1.17 1.09 1.04 1.00 0.97 0.97 0.98 1.04 1.12 1.33 1.53 1.51 1.52 1.57 1.64 1.72 1.95 2.01 1.93 1.94 1.76 1.60 1.58 1.37 1.12
0.94 1.08 1.08 0.99 0.90 0.94 1.02 1.01 0.97 0.92 0.84 0.78 0.82 0.85 0.92 0.94 0.93 0.91 0.86 0.84 0.78 0.78 0.75 0.78 0.86 0.91 0.91 1.00 1.12 1.31 1.39 1.43 1.49 1.52 1.65 1.70 1.74 1.73 1.62 1.60 1.51 1.38 1.16
1.00 1.24 1.38 1.27 1.00 0.80 0.82 0.79 0.76 0.80 0.79 0.75 0.77 0.77 0.70 0.64 0.66 0.69 0.63 0.62 0.66 0.70 0.70 0.67 0.68 0.74 0.76 0.85 0.95 1.01 1.12 1.18 1.32 1.49 1.60 1.61 1.62 1.64 1.57 1.53 1.53 1.43 1.19
1.17 1.31 1.36 1.23 1.05 0.78 0.69 0.68 0.66 0.70 0.76 0.70 0.72 0.71 0.61 0.49 0.47 0.47 0.45 0.45 0.49 0.55 0.56 0.58 0.64 0.65 0.66 0.68 0.68 0.72 0.78 0.85 0.95 1.01 1.12 1.32 1.51 1.55 1.54 1.56 1.57 1.52 1.35
0.83 0.85 0.96 0.97 0.91 0.78 0.71 0.75 0.80 0.79 0.71 0.65 0.62 0.58 0.51 0.44 0.43 0.41 0.38 0.39 0.44 0.47 0.48 0.54 0.58 0.57 0.62 0.65 0.65 0.64 0.65 0.73 0.81 0.83 0.84 0.93 1.15 1.29 1.39 1.44 1.46 1.49 1.47
0.60 0.53 0.64 0.78 0.73 0.66 0.70 0.77 0.91 0.91 0.82 0.70 0.60 0.56 0.52 0.49 0.47 0.42 0.41 0.41 0.47 0.58 0.61 0.61 0.64 0.61 0.63 0.62 0.63 0.66 0.66 0.68 0.74 0.78 0.79 0.84 0.94 1.08 1.15 1.25 1.35 1.41 1.52
0.47 0.41 0.40 0.42 0.41 0.44 0.47 0.59 0.84 1.03 1.01 0.90 0.77 0.68 0.61 0.54 0.48 0.44 0.43 0.42 0.45 0.51 0.54 0.62 0.70 0.78 0.82 0.81 0.76 0.74 0.71 0.67 0.70 0.76 0.82 0.83 0.83 0.94 1.15 1.28 1.34 1.37 1.45
0.28 0.24 0.20 0.20 0.22 0.27 0.34 0.45 0.72 0.91 0.93 0.92 0.80 0.66 0.55 0.45 0.43 0.46 0.49 0.46 0.41 0.44 0.45 0.52 0.61 0.71 0.80 0.85 0.83 0.69 0.59 0.60 0.66 0.66 0.67 0.75 0.82 0.84 0.97 1.13 1.35 1.36 1.43
0.18 0.18 0.16 0.14 0.11 0.11 0.16 0.27 0.46 0.62 0.68 0.74 0.70 0.54 0.48 0.43 0.39 0.42 0.48 0.49 0.39 0.38 0.39 0.43 0.42 0.44 0.49 0.64 0.63 0.51 0.43 0.49 0.59 0.66 0.68 0.68 0.69 0.71 0.75 0.77 1.01 1.19 1.28
0.22 0.22 0.22 0.19 0.17 0.14 0.14 0.17 0.24 0.33 0.40 0.44 0.45 0.36 0.34 0.41 0.42 0.45 0.44 0.38 0.31 0.34 0.36 0.31 0.27 0.29 0.32 0.37 0.35 0.40 0.43 0.47 0.52 0.60 0.69 0.73 0.71 0.77 0.84 0.79 0.83 0.92 0.98
0.28 0.24 0.20 0.18 0.15 0.12 0.12 0.13 0.15 0.18 0.20 0.20 0.17 0.14 0.21 0.30 0.32 0.30 0.28 0.23 0.23 0.28 0.36 0.31 0.29 0.32 0.28 0.30 0.34 0.37 0.41 0.55 0.61 0.60 0.61 0.72 0.78 0.83 0.97 0.95 1.02 0.94 0.84
0.12 0.08 0.05 0.04 0.03 0.03 0.03 0.03 0.02 0.02 0.02 0.02 0.02 0.04 0.05 0.06 0.06 0.06 0.07 0.11 0.15 0.19 0.18 0.22 0.37 0.37 0.33 0.40 0.38 0.32 0.40 0.54 0.61 0.57 0.60 0.72 0.81 0.94 1.04 1.09 1.11 1.00 0.90
0.01 0.00 0.00 0.00 0.00 0.00 0.00 0.00 0.00 0.00 0.00 0.00 0.00 0.00 0.01 0.01 0.01 0.01 0.01 0.03 0.06 0.09 0.10 0.14 0.27 0.33 0.34 0.34 0.24 0.25 0.38 0.51 0.59 0.61 0.62 0.83 0.84 0.90 0.95 1.01 1.11 1.11 0.98
0.00 0.00 0.00 0.00 0.00 0.00 0.00 0.00 0.00 0.00 0.00 0.00 0.00 0.00 0.00 0.01 0.01 0.02 0.01 0.00 0.01 0.02 0.05 0.10 0.13 0.14 0.14 0.13 0.14 0.19 0.27 0.35 0.48 0.56 0.60 0.57 0.68 0.70 0.79 0.90 0.97 1.15 1.02
0.00 0.00 0.00 0.00 0.00 0.00 0.00 0.00 0.00 0.00 0.00 0.00 0.00 0.00 0.01 0.01 0.01 0.02 0.01 0.01 0.00 0.01 0.02 0.05 0.09 0.08 0.06 0.05 0.06 0.08 0.12 0.19 0.28 0.37 0.49 0.48 0.54 0.59 0.67 0.69 0.85 1.01 0.96
0.00 0.00 0.00 0.00 0.00 0.00 0.00 0.00 0.00 0.00 0.00 0.00 0.01 0.00 0.00 0.01 0.00 0.01 0.01 0.01 0.01 0.01 0.02 0.03 0.06 0.07 0.08 0.07 0.06 0.06 0.08 0.13 0.18 0.22 0.37 0.44 0.49 0.48 0.50 0.62 0.78 0.83 0.88
0.00 0.00 0.00 0.00 0.00 0.00 0.00 0.00 0.00 0.00 0.00 0.00 0.00 0.00 0.00 0.01 0.00 0.01 0.00 0.01 0.01 0.01 0.01 0.02 0.04 0.08 0.11 0.07 0.05 0.08 0.11 0.13 0.15 0.18 0.32 0.43 0.50 0.49 0.48 0.54 0.67 0.73 0.86
0.00 0.00 0.00 0.00 0.00 0.00 0.00 0.00 0.00 0.00 0.00 0.00 0.00 0.00 0.00 0.01 0.01 0.01 0.00 0.00 0.00 0.01 0.01 0.01 0.03 0.03 0.04 0.03 0.04 0.08 0.11 0.13 0.14 0.23 0.42 0.56 0.58 0.57 0.53 0.56 0.65 0.64 0.62
0.00 0.00 0.00 0.00 0.00 0.00 0.00 0.00 0.00 0.00 0.00 0.00 0.00 0.00 0.00 0.01 0.01 0.01 0.01 0.00 0.01 0.01 0.01 0.01 0.02 0.02 0.02 0.03 0.06 0.11 0.14 0.16 0.23 0.41 0.61 0.72 0.79 0.77 0.69 0.64 0.62 0.57 0.55

GEFSMW_prec_meanprecacc_102.txt.gz
Total_Precipitation_Accumulation
0.07 0.09 0.12 0.15 0.17 0.17 0.19 0.23 0.29 0.32 0.34 0.42 0.53 0.62 0.72 0.90 1.11 1.17 1.22 1.35 1.37 1.40 1.54 1.63 1.65 1.57 1.46 1.47 1.62 1.94 1.80 1.42 1.25 1.25 1.09 0.85 0.68 0.69 0.61 0.58 0.62 0.60 0.62
0.05 0.05 0.07 0.10 0.11 0.10 0.12 0.17 0.26 0.35 0.41 0.47 0.62 0.77 0.99 1.11 1.25 1.40 1.39 1.41 1.46 1.49 1.57 1.78 1.88 1.80 1.75 1.81 1.80 1.97 2.08 1.82 1.58 1.48 1.59 1.32 1.03 0.69 0.53 0.53 0.55 0.60 0.66
0.05 0.04 0.04 0.06 0.09 0.08 0.10 0.17 0.31 0.50 0.70 0.82 1.05 1.33 1.58 1.66 1.58 1.57 1.61 1.59 1.63 1.70 1.66 1.77 1.97 1.93 1.86 1.85 2.00 2.21 2.40 2.31 2.09 1.86 1.87 1.53 1.29 1.16 0.69 0.49 0.51 0.57 0.63
0.10 0.08 0.08 0.08 0.09 0.12 0.20 0.36 0.61 0.91 1.16 1.32 1.51 1.72 1.83 1.87 1.80 1.81 1.79 1.77 1.69 1.62 1.61 1.72 1.93 2.06 2.13 2.14 2.20 2.18 2.40 2.53 2.34 2.28 1.99 1.64 1.45 1.47 1.24 0.79 0.56 0.59 0.60
0.19 0.19 0.21 0.22 0.28 0.39 0.57 0.86 1.12 1.37 1.52 1.58 1.68 1.88 2.03 2.19 2.20 2.08 1.93 1.82 1.78 1.70 1.61 1.66 1.73 1.78 1.85 1.95 2.08 2.14 2.30 2.38 2.46 2.44 2.27 2.02 1.77 1.35 1.30 1.29 1.00 0.77 0.57
0.29 0.35 0.45 0.55 0.70 0.82 1.00 1.20 1.35 1.50 1.51 1.52 1.58 1.71 1.90 2.06 2.08 2.09 2.05 1.92 1.78 1.67 1.58 1.53 1.64 1.66 1.66 1.77 1.88 1.96 2.16 2.29 2.38 2.43 2.28 2.09 1.94 1.69 1.45 1.30 1.23 1.12 0.81
0.41 0.57 0.72 0.86 0.98 1.09 1.19 1.22 1.22 1.27 1.30 1.32 1.36 1.44 1.50 1.53 1.59 1.70 1.62 1.49 1.36 1.31 1.30 1.24 1.30 1.43 1.48 1.65 1.71 1.64 1.69 1.84 2.00 2.15 2.16 2.10 1.96 1.91 1.81 1.64 1.47 1.27 0.95
0.68 0.77 0.88 0.97 1.01 1.14 1.20 1.16 1.13 1.12 1.06 1.00 1.05 1.07 1.11 1.17 1.20 1.22 1.17 1.09 1.04 1.00 0.97 0.97 0.98 1.04 1.12 1.33 1.53 1.51 1.52 1.58 1.65 1.73 1.95 2.02 1.95 1.94 1.76 1.61 1.59 1.39 1.15
0.94 1.08 1.08 0.99 0.90 0.94 1.02 1.01 0.97 0.92 0.84 0.78 0.82 0.85 0.92 0.94 0.93 0.91 0.86 0.84 0.78 0.78 0.75 0.78 0.86 0.91 0.91 1.00 1.12 1.31 1.39 1.43 1.50 1.53 1.66 1.72 1.75 1.74 1.63 1.61 1.52 1.39 1.18
1.00 1.24 1.38 1.27 1.00 0.80 0.82 0.79 0.76 0.80 0.79 0.75 0.77 0.77 0.70 0.64 0.66 0.69 0.63 0.62 0.66 0.70 0.70 0.67 0.68 0.74 0.76 0.85 0.95 1.01 1.12 1.18 1.32 1.49 1.60 1.61 1.63 1.65 1.58 1.54 1.54 1.44 1.20
1.17 1.31 1.36 1.23 1.05 0.78 0.69 0.68 0.66 0.70 0.76 0.70 0.72 0.71 0.61 0.49 0.47 0.47 0.45 0.45 0.49 0.55 0.56 0.58 0.64 0.65 0.66 0.68 0.69 0.73 0.78 0.85 0.95 1.01 1.12 1.32 1.52 1.56 1.55 1.56 1.57 1.52 1.36
0.83 0.85 0.96 0.97 0.91 0.78 0.71 0.75 0.80 0.79 0.71 0.65 0.62 0.58 0.51 0.44 0.43 0.41 0.38 0.39 0.44 0.47 0.48 0.54 0.58 0.57 0.62 0.65 0.65 0.64 0.65 0.74 0.82 0.83 0.84 0.94 1.16 1.29 1.39 1.45 1.47 1.50 1.48
0.60 0.53 0.64 0.78 0.73 0.66 0.70 0.77 0.91 0.91 0.82 0.70 0.60 0.56 0.52 0.49 0.47 0.42 0.41 0.41 0.47 0.58 0.61 0.61 0.64 0.61 0.63 0.62 0.63 0.66 0.66 0.69 0.74 0.78 0.80 0.85 0.94 1.08 1.16 1.26 1.35 1.42 1.53
0.47 0.41 0.40 0.42 0.41 0.44 0.47 0.59 0.84 1.03 1.01 0.90 0.77 0.68 0.61 0.54 0.48 0.44 0.43 0.42 0.45 0.51 0.54 0.62 0.70 0.78 0.83 0.81 0.76 0.74 0.72 0.68 0.70 0.76 0.83 0.84 0.85 0.94 1.15 1.29 1.35 1.38 1.46
0.28 0.24 0.20 0.20 0.22 0.27 0.34 0.45 0.72 0.91 0.93 0.92 0.80 0.66 0.55 0.45 0.43 0.46 0.49 0.46 0.41 0.44 0.45 0.52 0.61 0.71 0.80 0.85 0.83 0.69 0.59 0.61 0.66 0.66 0.67 0.75 0.83 0.84 0.97 1.13 1.36 1.36 1.44
0.18 0.18 0.16 0.14 0.11 0.11 0.16 0.27 0.46 0.62 0.68 0.74 0.70 0.54 0.48 0.43 0.39 0.42 0.48 0.49 0.39 0.38 0.39 0.43 0.42 0.44 0.49 0.64 0.63 0.51 0.43 0.49 0.59 0.66 0.68 0.69 0.70 0.72 0.75 0.78 1.02 1.19 1.29
0.22 0.22 0.22 0.19 0.17 0.14 0.14 0.17 0.24 0.33 0.40 0.44 0.45 0.36 0.34 0.41 0.42 0.45 0.44 0.38 0.31 0.34 0.36 0.31 0.27 0.29 0.32 0.37 0.35 0.40 0.43 0.47 0.52 0.60 0.69 0.74 0.71 0.77 0.85 0.80 0.83 0.92 0.99
0.28 0.24 0.20 0.18 0.15 0.12 0.12 0.13 0.15 0.18 0.20 0.20 0.17 0.14 0.21 0.30 0.32 0.30 0.28 0.23 0.23 0.28 0.36 0.31 0.29 0.32 0.28 0.30 0.34 0.37 0.41 0.55 0.61 0.60 0.61 0.72 0.78 0.83 0.98 0.96 1.03 0.95 0.85
0.12 0.08 0.05 0.04 0.03 0.03 0.03 0.03 0.02 0.02 0.02 0.02 0.02 0.04 0.05 0.06 0.06 0.06 0.07 0.11 0.15 0.19 0.18 0.22 0.37 0.37 0.33 0.40 0.38 0.32 0.40 0.54 0.61 0.57 0.60 0.72 0.82 0.94 1.04 1.09 1.11 1.01 0.91
0.01 0.00 0.00 0.00 0.00 0.00 0.00 0.00 0.00 0.00 0.00 0.00 0.00 0.00 0.01 0.01 0.01 0.01 0.01 0.03 0.06 0.09 0.10 0.14 0.27 0.33 0.34 0.34 0.24 0.25 0.38 0.51 0.59 0.61 0.62 0.83 0.84 0.91 0.95 1.01 1.11 1.12 0.98
0.00 0.00 0.00 0.00 0.00 0.00 0.00 0.00 0.00 0.00 0.00 0.00 0.00 0.00 0.00 0.01 0.01 0.02 0.01 0.00 0.01 0.02 0.05 0.10 0.13 0.14 0.14 0.13 0.14 0.19 0.27 0.35 0.48 0.56 0.60 0.57 0.68 0.70 0.80 0.90 0.97 1.16 1.02
0.00 0.00 0.00 0.00 0.00 0.00 0.00 0.00 0.00 0.00 0.00 0.00 0.00 0.00 0.01 0.01 0.01 0.02 0.01 0.01 0.00 0.01 0.02 0.05 0.09 0.08 0.06 0.05 0.06 0.08 0.12 0.19 0.28 0.37 0.49 0.48 0.54 0.59 0.67 0.69 0.85 1.01 0.96
0.00 0.00 0.00 0.00 0.00 0.00 0.00 0.00 0.00 0.00 0.00 0.00 0.01 0.00 0.00 0.01 0.00 0.01 0.01 0.01 0.01 0.01 0.02 0.03 0.06 0.07 0.08 0.07 0.06 0.06 0.08 0.13 0.18 0.22 0.37 0.44 0.49 0.48 0.50 0.62 0.78 0.83 0.89
0.00 0.00 0.00 0.00 0.00 0.00 0.00 0.00 0.00 0.00 0.00 0.00 0.00 0.00 0.00 0.01 0.00 0.01 0.00 0.01 0.01 0.01 0.01 0.02 0.04 0.08 0.11 0.07 0.05 0.08 0.11 0.13 0.15 0.18 0.32 0.43 0.50 0.49 0.48 0.55 0.67 0.73 0.86
0.00 0.00 0.00 0.00 0.00 0.00 0.00 0.00 0.00 0.00 0.00 0.00 0.00 0.00 0.00 0.01 0.01 0.01 0.00 0.00 0.00 0.01 0.01 0.01 0.03 0.03 0.04 0.03 0.04 0.08 0.11 0.13 0.14 0.23 0.42 0.56 0.58 0.57 0.53 0.56 0.65 0.64 0.62
0.00 0.00 0.00 0.00 0.00 0.00 0.00 0.00 0.00 0.00 0.00 0.00 0.00 0.00 0.00 0.01 0.01 0.01 0.01 0.00 0.01 0.01 0.01 0.01 0.02 0.02 0.02 0.03 0.06 0.11 0.14 0.16 0.23 0.41 0.61 0.72 0.79 0.77 0.69 0.64 0.62 0.57 0.55

GEFSMW_prec_meanprecacc_108.txt.gz
Total_Precipitation_Accumulation
0.07 0.09 0.12 0.15 0.17 0.17 0.19 0.23 0.29 0.32 0.34 0.42 0.53 0.62 0.72 0.90 1.11 1.17 1.22 1.35 1.37 1.40 1.54 1.63 1.65 1.57 1.47 1.48 1.63 1.94 1.81 1.43 1.26 1.27 1.11 0.90 0.74 0.76 0.66 0.64 0.70 0.67 0.69
0.06 0.05 0.07 0.10 0.11 0.10 0.12 0.17 0.26 0.35 0.41 0.47 0.62 0.77 0.99 1.11 1.25 1.40 1.39 1.41 1.46 1.49 1.57 1.78 1.88 1.81 1.76 1.82 1.81 1.98 2.08 1.84 1.60 1.49 1.61 1.36 1.09 0.76 0.59 0.59 0.60 0.68 0.73
0.06 0.04 0.05 0.06 0.09 0.08 0.10 0.17 0.31 0.50 0.70 0.82 1.05 1.33 1.58 1.66 1.58 1.57 1.61 1.59 1.63 1.70 1.66 1.77 1.97 1.93 1.87 1.86 2.01 2.22 2.42 2.34 2.11 1.87 1.89 1.56 1.33 1.21 0.74 0.55 0.57 0.65 0.71
0.10 0.08 0.08 0.08 0.09 0.12 0.20 0.36 0.61 0.91 1.16 1.32 1.51 1.72 1.83 1.87 1.80 1.81 1.79 1.77 1.69 1.62 1.61 1.72 1.93 2.06 2.13 2.15 2.21 2.19 2.41 2.56 2.37 2.31 2.01 1.67 1.49 1.51 1.27 0.84 0.61 0.64 0.66
0.19 0.19 0.22 0.22 0.29 0.39 0.58 0.86 1.12 1.37 1.52 1.58 1.68 1.88 2.03 2.19 2.20 2.08 1.93 1.82 1.78 1.70 1.61 1.66 1.73 1.78 1.85 1.96 2.09 2.15 2.31 2.39 2.48 2.47 2.30 2.05 1.81 1.38 1.32 1.32 1.04 0.81 0.61
0.29 0.35 0.45 0.55 0.70 0.82 1.00 1.21 1.35 1.50 1.51 1.52 1.58 1.71 1.90 2.06 2.08 2.09 2.05 1.92 1.78 1.67 1.58 1.53 1.64 1.66 1.66 1.78 1.89 1.98 2.18 2.30 2.40 2.45 2.30 2.10 1.97 1.72 1.47 1.32 1.26 1.15 0.85
0.41 0.57 0.72 0.86 0.98 1.09 1.19 1.22 1.22 1.27 1.30 1.32 1.36 1.44 1.50 1.53 1.59 1.70 1.62 1.49 1.36 1.31 1.30 1.24 1.30 1.43 1.48 1.65 1.71 1.66 1.70 1.85 2.01 2.17 2.18 2.12 1.98 1.94 1.82 1.65 1.50 1.30 0.99
0.68 0.77 0.88 0.97 1.01 1.14 1.20 1.16 1.13 1.12 1.06 1.00 1.05 1.07 1.11 1.17 1.20 1.22 1.17 1.09 1.04 1.00 0.97 0.97 0.98 1.04 1.12 1.33 1.53 1.52 1.53 1.59 1.66 1.75 1.98 2.05 1.98 1.98 1.78 1.63 1.61 1.41 1.16
0.94 1.08 1.08 0.99 0.90 0.94 1.02 1.01 0.97 0.92 0.84 0.78 0.82 0.85 0.92 0.94 0.93 0.91 0.86 0.84 0.78 0.78 0.75 0.78 0.86 0.91 0.91 1.00 1.13 1.32 1.39 1.44 1.51 1.55 1.69 1.76 1.78 1.76 1.64 1.62 1.54 1.42 1.20
1.00 1.24 1.38 1.27 1.00 0.80 0.82 0.79 0.76 0.80 0.79 0.75 0.77 0.77 0.70 0.64 0.66 0.69 0.63 0.62 0.66 0.70 0.70 0.67 0.68 0.74 0.76 0.85 0.95 1.01 1.12 1.19 1.34 1.51 1.62 1.63 1.64 1.66 1.59 1.54 1.56 1.46 1.23
1.17 1.31 1.36 1.23 1.05 0.78 0.69 0.69 0.66 0.70 0.76 0.70 0.72 0.71 0.61 0.49 0.47 0.47 0.45 0.45 0.49 0.55 0.56 0.58 0.64 0.65 0.66 0.68 0.69 0.73 0.78 0.85 0.96 1.02 1.13 1.33 1.52 1.57 1.55 1.57 1.59 1.55 1.38
0.83 0.85 0.96 0.97 0.91 0.78 0.71 0.75 0.80 0.79 0.71 0.65 0.62 0.58 0.51 0.44 0.43 0.41 0.38 0.39 0.44 0.47 0.48 0.54 0.58 0.57 0.62 0.65 0.65 0.64 0.65 0.74 0.82 0.83 0.84 0.94 1.16 1.30 1.41 1.46 1.48 1.51 1.49
0.60 0.53 0.64 0.78 0.73 0.66 0.70 0.77 0.91 0.91 0.82 0.70 0.60 0.56 0.52 0.49 0.47 0.42 0.41 0.41 0.47 0.58 0.61 0.61 0.64 0.61 0.63 0.62 0.63 0.66 0.66 0.69 0.74 0.78 0.80 0.85 0.95 1.09 1.17 1.27 1.36 1.43 1.53
0.47 0.41 0.40 0.42 0.41 0.44 0.47 0.59 0.84 1.03 1.01 0.90 0.77 0.68 0.61 0.54 0.48 0.44 0.43 0.42 0.45 0.51 0.54 0.62 0.70 0.78 0.83 0.81 0.76 0.74 0.72 0.68 0.70 0.76 0.83 0.85 0.85 0.95 1.16 1.29 1.35 1.38 1.46
0.28 0.24 0.20 0.20 0.22 0.27 0.34 0.45 0.72 0.91 0.93 0.92 0.80 0.66 0.55 0.45 0.43 0.46 0.49 0.46 0.41 0.44 0.45 0.52 0.61 0.71 0.80 0.85 0.83 0.69 0.59 0.61 0.66 0.66 0.67 0.76 0.83 0.85 0.98 1.14 1.36 1.37 1.44
0.18 0.18 0.16 0.14 0.11 0.11 0.16 0.27 0.46 0.62 0.68 0.74 0.70 0.54 0.48 0.43 0.39 0.42 0.48 0.49 0.39 0.38 0.39 0.43 0.42 0.44 0.49 0.64 0.63 0.51 0.43 0.49 0.59 0.66 0.69 0.69 0.70 0.72 0.75 0.78 1.02 1.20 1.30
0.22 0.22 0.22 0.19 0.17 0.14 0.14 0.17 0.24 0.33 0.40 0.44 0.45 0.36 0.34 0.41 0.42 0.45 0.44 0.38 0.31 0.34 0.36 0.31 0.27 0.29 0.32 0.37 0.35 0.40 0.43 0.47 0.52 0.60 0.69 0.74 0.71 0.77 0.85 0.81 0.84 0.93 0.99
0.28 0.24 0.20 0.18 0.15 0.12 0.12 0.13 0.15 0.18 0.20 0.20 0.17 0.14 0.21 0.30 0.32 0.30 0.28 0.23 0.23 0.28 0.36 0.31 0.29 0.32 0.28 0.30 0.34 0.37 0.41 0.55 0.61 0.60 0.61 0.72 0.78 0.83 0.98 0.97 1.03 0.96 0.85
0.12 0.08 0.05 0.04 0.03 0.03 0.03 0.03 0.02 0.02 0.02 0.02 0.02 0.04 0.05 0.06 0.06 0.06 0.07 0.11 0.15 0.19 0.18 0.22 0.37 0.37 0.33 0.40 0.38 0.32 0.40 0.54 0.61 0.57 0.60 0.72 0.82 0.95 1.04 1.09 1.12 1.01 0.91
0.01 0.00 0.00 0.00 0.00 0.00 0.00 0.00 0.00 0.00 0.00 0.00 0.00 0.00 0.01 0.01 0.01 0.01 0.01 0.03 0.06 0.09 0.10 0.14 0.27 0.33 0.34 0.34 0.24 0.25 0.38 0.51 0.59 0.61 0.62 0.83 0.84 0.91 0.95 1.01 1.11 1.12 0.99
0.00 0.00 0.00 0.00 0.00 0.00 0.00 0.00 0.00 0.00 0.00 0.00 0.00 0.00 0.00 0.01 0.01 0.02 0.01 0.01 0.01 0.02 0.05 0.10 0.13 0.14 0.14 0.13 0.14 0.19 0.27 0.35 0.48 0.56 0.60 0.57 0.68 0.70 0.80 0.90 0.97 1.17 1.04
0.00 0.00 0.00 0.00 0.00 0.00 0.00 0.00 0.00 0.00 0.00 0.00 0.00 0.00 0.01 0.01 0.01 0.02 0.01 0.01 0.01 0.01 0.03 0.05 0.09 0.08 0.06 0.05 0.06 0.08 0.12 0.19 0.28 0.37 0.49 0.48 0.54 0.59 0.67 0.69 0.85 1.01 0.98
0.00 0.00 0.00 0.00 0.00 0.00 0.00 0.00 0.00 0.00 0.00 0.00 0.01 0.00 0.00 0.01 0.01 0.01 0.01 0.01 0.01 0.01 0.02 0.03 0.06 0.07 0.08 0.07 0.06 0.06 0.08 0.13 0.18 0.22 0.37 0.44 0.49 0.48 0.50 0.62 0.78 0.83 0.89
0.00 0.00 0.00 0.00 0.00 0.00 0.00 0.00 0.00 0.00 0.00 0.00 0.00 0.00 0.00 0.01 0.00 0.01 0.01 0.01 0.01 0.01 0.02 0.02 0.05 0.08 0.11 0.07 0.05 0.08 0.11 0.13 0.15 0.18 0.32 0.44 0.50 0.49 0.48 0.55 0.67 0.73 0.86
0.00 0.00 0.00 0.00 0.00 0.00 0.00 0.00 0.00 0.00 0.00 0.00 0.00 0.00 0.01 0.01 0.01 0.01 0.00 0.01 0.01 0.01 0.02 0.02 0.03 0.04 0.04 0.03 0.04 0.08 0.11 0.13 0.14 0.23 0.42 0.56 0.58 0.57 0.53 0.56 0.65 0.64 0.62
0.00 0.00 0.00 0.00 0.00 0.00 0.00 0.00 0.00 0.00 0.00 0.00 0.00 0.00 0.01 0.01 0.01 0.01 0.01 0.01 0.01 0.02 0.02 0.02 0.02 0.02 0.02 0.03 0.06 0.11 0.14 0.16 0.23 0.41 0.61 0.72 0.79 0.77 0.69 0.64 0.62 0.57 0.55

GEFSMW_prec_meanprecacc_114.txt.gz
Total_Precipitation_Accumulation
0.07 0.09 0.12 0.15 0.17 0.17 0.19 0.23 0.29 0.32 0.34 0.42 0.53 0.62 0.72 0.90 1.11 1.17 1.22 1.35 1.37 1.40 1.54 1.63 1.65 1.57 1.47 1.49 1.64 1.96 1.83 1.45 1.28 1.30 1.15 0.93 0.78 0.79 0.70 0.70 0.77 0.75 0.76
0.06 0.05 0.07 0.10 0.11 0.10 0.12 0.17 0.26 0.35 0.41 0.48 0.62 0.77 0.99 1.11 1.25 1.40 1.39 1.41 1.46 1.49 1.57 1.78 1.88 1.81 1.76 1.82 1.82 2.00 2.11 1.86 1.63 1.54 1.67 1.42 1.14 0.80 0.63 0.65 0.69 0.75 0.81
0.06 0.04 0.05 0.06 0.09 0.08 0.10 0.17 0.31 0.50 0.71 0.82 1.05 1.33 1.58 1.66 1.58 1.57 1.61 1.59 1.63 1.70 1.66 1.77 1.97 1.93 1.87 1.87 2.02 2.24 2.45 2.38 2.15 1.90 1.94 1.64 1.41 1.28 0.80 0.59 0.64 0.72 0.79
0.10 0.08 0.09 0.08 0.10 0.12 0.21 0.36 0.61 0.91 1.16 1.32 1.51 1.72 1.83 1.87 1.80 1.81 1.79 1.77 1.69 1.62 1.61 1.72 1.93 2.06 2.13 2.15 2.22 2.20 2.44 2.60 2.42 2.34 2.04 1.73 1.57 1.60 1.35 0.90 0.66 0.69 0.73
0.19 0.19 0.22 0.23 0.29 0.39 0.58 0.86 1.12 1.37 1.53 1.58 1.68 1.88 2.03 2.19 2.20 2.08 1.93 1.82 1.78 1.70 1.61 1.66 1.73 1.78 1.85 1.96 2.09 2.16 2.32 2.41 2.51 2.50 2.34 2.10 1.89 1.45 1.40 1.40 1.12 0.87 0.67
0.29 0.35 0.45 0.55 0.70 0.82 1.00 1.21 1.35 1.50 1.51 1.52 1.58 1.71 1.90 2.06 2.08 2.09 2.05 1.92 1.78 1.67 1.58 1.53 1.64 1.66 1.66 1.78 1.89 1.98 2.19 2.31 2.41 2.47 2.34 2.16 2.06 1.82 1.55 1.40 1.35 1.22 0.90
0.41 0.57 0.72 0.86 0.98 1.09 1.19 1.22 1.22 1.27 1.30 1.32 1.36 1.44 1.50 1.53 1.59 1.70 1.62 1.49 1.36 1.31 1.30 1.24 1.30 1.43 1.48 1.65 1.72 1.66 1.71 1.86 2.03 2.19 2.21 2.15 2.02 2.00 1.89 1.73 1.57 1.36 1.03
0.68 0.77 0.88 0.97 1.01 1.14 1.20 1.16 1.13 1.12 1.06 1.00 1.05 1.07 1.11 1.17 1.20 1.22 1.17 1.09 1.04 1.00 0.97 0.97 0.98 1.04 1.12 1.33 1.54 1.52 1.54 1.60 1.67 1.76 1.99 2.07 2.00 2.00 1.82 1.68 1.66 1.46 1.21
0.94 1.08 1.08 0.99 0.90 0.94 1.02 1.01 0.97 0.92 0.84 0.79 0.82 0.85 0.92 0.94 0.93 0.91 0.86 0.84 0.78 0.78 0.75 0.78 0.86 0.91 0.91 1.00 1.13 1.32 1.40 1.45 1.52 1.55 1.70 1.77 1.80 1.77 1.65 1.64 1.59 1.49 1.27
1.00 1.24 1.38 1.27 1.00 0.80 0.82 0.79 0.77 0.80 0.79 0.75 0.77 0.77 0.70 0.64 0.66 0.69 0.63 0.62 0.66 0.70 0.70 0.67 0.68 0.74 0.76 0.85 0.95 1.02 1.12 1.19 1.35 1.52 1.64 1.64 1.65 1.67 1.60 1.56 1.60 1.52 1.32
1.17 1.31 1.36 1.23 1.05 0.78 0.69 0.69 0.66 0.70 0.77 0.70 0.72 0.71 0.61 0.49 0.47 0.47 0.45 0.45 0.49 0.55 0.56 0.58 0.64 0.65 0.66 0.68 0.69 0.74 0.79 0.86 0.97 1.03 1.14 1.34 1.53 1.58 1.57 1.59 1.61 1.58 1.44
0.83 0.85 0.96 0.97 0.91 0.78 0.71 0.75 0.80 0.79 0.72 0.65 0.62 0.58 0.51 0.44 0.43 0.41 0.38 0.39 0.44 0.47 0.48 0.54 0.58 0.57 0.62 0.65 0.65 0.64 0.65 0.74 0.83 0.84 0.85 0.95 1.17 1.32 1.42 1.47 1.49 1.53 1.52
0.60 0.53 0.64 0.78 0.73 0.66 0.70 0.77 0.91 0.91 0.82 0.70 0.60 0.56 0.52 0.49 0.47 0.42 0.41 0.41 0.47 0.58 0.61 0.61 0.64 0.61 0.63 0.62 0.63 0.66 0.66 0.69 0.75 0.78 0.80 0.86 0.96 1.10 1.18 1.28 1.37 1.44 1.55
0.47 0.41 0.40 0.42 0.41 0.44 0.47 0.59 0.84 1.03 1.01 0.90 0.77 0.68 0.61 0.54 0.48 0.44 0.43 0.42 0.45 0.51 0.54 0.62 0.70 0.78 0.83 0.81 0.76 0.74 0.72 0.68 0.70 0.77 0.84 0.85 0.86 0.96 1.18 1.30 1.36 1.39 1.48
0.28 0.24 0.20 0.20 0.22 0.27 0.34 0.45 0.72 0.91 0.93 0.92 0.80 0.66 0.55 0.45 0.43 0.46 0.49 0.46 0.41 0.44 0.45 0.52 0.61 0.71 0.80 0.85 0.83 0.69 0.59 0.61 0.66 0.66 0.67 0.76 0.83 0.85 0.99 1.15 1.37 1.38 1.46
0.18 0.18 0.16 0.14 0.11 0.11 0.16 0.27 0.46 0.62 0.68 0.74 0.70 0.54 0.48 0.43 0.39 0.42 0.48 0.49 0.39 0.38 0.39 0.43 0.42 0.44 0.49 0.64 0.63 0.51 0.43 0.50 0.59 0.66 0.69 0.69 0.70 0.72 0.75 0.78 1.02 1.21 1.31
0.22 0.22 0.22 0.19 0.17 0.14 0.14 0.17 0.24 0.33 0.40 0.45 0.45 0.36 0.34 0.41 0.42 0.45 0.44 0.38 0.31 0.34 0.36 0.31 0.27 0.29 0.32 0.37 0.35 0.40 0.43 0.47 0.52 0.60 0.69 0.74 0.71 0.77 0.85 0.81 0.84 0.93 0.99
0.28 0.24 0.20 0.18 0.15 0.12 0.12 0.13 0.15 0.18 0.20 0.20 0.17 0.14 0.21 0.30 0.32 0.30 0.28 0.23 0.23 0.28 0.36 0.31 0.29 0.32 0.28 0.30 0.34 0.37 0.41 0.55 0.61 0.60 0.61 0.72 0.78 0.83 0.98 0.97 1.04 0.97 0.86
0.12 0.08 0.05 0.04 0.03 0.03 0.03 0.03 0.02 0.02 0.02 0.02 0.02 0.04 0.05 0.06 0.06 0.06 0.07 0.11 0.15 0.20 0.18 0.22 0.37 0.37 0.33 0.40 0.38 0.32 0.41 0.54 0.62 0.57 0.60 0.72 0.82 0.95 1.04 1.09 1.12 1.01 0.91
0.01 0.00 0.00 0.00 0.00 0.00 0.00 0.00 0.00 0.00 0.00 0.00 0.00 0.00 0.01 0.01 0.01 0.01 0.01 0.03 0.06 0.09 0.10 0.14 0.27 0.33 0.34 0.34 0.24 0.25 0.38 0.51 0.60 0.61 0.62 0.83 0.84 0.91 0.95 1.01 1.12 1.13 0.99
0.00 0.00 0.00 0.00 0.00 0.00 0.00 0.00 0.00 0.00 0.00 0.00 0.00 0.00 0.01 0.01 0.01 0.02 0.01 0.01 0.01 0.02 0.05 0.10 0.13 0.14 0.15 0.14 0.14 0.20 0.27 0.35 0.48 0.57 0.61 0.58 0.69 0.70 0.80 0.90 0.97 1.17 1.04
0.00 0.00 0.00 0.00 0.00 0.00 0.00 0.00 0.00 0.00 0.00 0.00 0.00 0.00 0.01 0.01 0.01 0.03 0.02 0.01 0.01 0.01 0.03 0.06 0.09 0.08 0.07 0.06 0.07 0.09 0.13 0.19 0.28 0.38 0.49 0.49 0.55 0.59 0.67 0.69 0.85 1.01 0.98
0.00 0.00 0.00 0.00 0.00 0.00 0.00 0.00 0.00 0.00 0.00 0.00 0.01 0.00 0.00 0.01 0.01 0.01 0.01 0.01 0.01 0.01 0.02 0.04 0.07 0.08 0.09 0.07 0.07 0.07 0.09 0.14 0.18 0.22 0.37 0.44 0.49 0.48 0.50 0.62 0.78 0.83 0.89
0.00 0.00 0.00 0.00 0.00 0.00 0.00 0.00 0.00 0.00 0.00 0.00 0.00 0.00 0.00 0.01 0.01 0.01 0.01 0.01 0.01 0.02 0.02 0.03 0.05 0.09 0.11 0.07 0.07 0.09 0.12 0.14 0.16 0.19 0.32 0.44 0.50 0.49 0.48 0.55 0.67 0.73 0.86
0.00 0.00 0.00 0.00 0.00 0.00 0.00 0.00 0.00 0.00 0.00 0.00 0.00 0.00 0.01 0.01 0.01 0.01 0.01 0.01 0.01 0.02 0.02 0.03 0.04 0.04 0.05 0.05 0.07 0.10 0.13 0.15 0.15 0.24 0.42 0.57 0.58 0.57 0.53 0.56 0.65 0.64 0.62
0.00 0.00 0.00 0.00 0.00 0.00 0.00 0.00 0.00 0.00 0.00 0.00 0.00 0.00 0.01 0.01 0.01 0.02 0.02 0.01 0.02 0.02 0.03 0.03 0.03 0.03 0.04 0.06 0.09 0.14 0.18 0.19 0.25 0.42 0.62 0.73 0.79 0.77 0.69 0.64 0.62 0.57 0.55